Regional Weather Roundup
Issued by NWS

Home | Current Version | Previous Version | Graphics & Text | Print | Product List | Glossary On
Versions: 1 2 3 4 5 6 7 8 9 10 11 12 13 14 15 16 17 18 19 20 21 22 23 24 25 26 27 28 29 30 31 32 33 34 35 36 37 38 39 40 41 42 43 44 45 46 47 48 49 50
000
ASUS43 KLMK 142002
RWRKY
KENTUCKY REGIONAL WEATHER ROUNDUP
NATIONAL WEATHER SERVICE LOUISVILLE KY
400 PM EDT SUN SEP 14 2014

NOTE "FAIR" INDICATES FEW OR NO CLOUDS BELOW 12,000 FEET
WITH NO SIGNIFICANT WEATHER AND/OR OBSTRUCTIONS TO VISIBILITY.

KYZ001>023-026-027-061>063-070>075-142100-
WESTERN AND SOUTH CENTRAL KENTUCKY

CITY           SKY/WX    TMP DP  RH WIND       PRES   REMARKS
PADUCAH        SUNNY     74  47  38 CALM      30.21F
HENDERSON      SUNNY     70  46  43 CALM      30.22F
OWENSBORO      SUNNY     71  49  45 NE7       30.22F
HOPKINSVILLE   NOT AVBL
BOWLING GREEN  SUNNY     75  52  44 N6        30.20F
GLASGOW        SUNNY     75  50  41 CALM      30.20F
$$

KYZ024-025-028>034-038-045-046-053-142100-
NORTH CENTRAL KENTUCKY

CITY           SKY/WX    TMP DP  RH WIND       PRES   REMARKS
LOUISVILLE/SDF MOSUNNY   73  49  42 W6        30.21F
LOUISVILLE/LOU SUNNY     71  48  43 VRB3      30.22F
FORT KNOX      NOT AVBL
$$

KYZ035>037-039>044-047>052-055>060-089>105-142100-
NORTHEAST KENTUCKY

CITY           SKY/WX    TMP DP  RH WIND       PRES   REMARKS
LEXINGTON      SUNNY     72  48  42 VRB5      30.22F
COVINGTON      MOSUNNY   69  46  43 SW3       30.23F
FRANKFORT      SUNNY     70  47  43 CALM      30.21F
$$

KYZ054-064>069-076>088-106>120-142100-
SOUTHEAST KENTUCKY

CITY           SKY/WX    TMP DP  RH WIND       PRES   REMARKS
JACKSON        SUNNY     68  52  56 S3        30.22F
LONDON         PTSUNNY   74  57  55 NW3       30.21F
SOMERSET       NOT AVBL
MIDDLESBORO    CLOUDY    73  62  67 CALM      30.19F
MONTICELLO     PTCLDY    73  59  61 N5        30.22F
$$




USA.gov is the U.S. government's official web portal to all federal, state and local government web resources and services.